Time,TemperatureF,DewpointF,PressureIn,WindDirection,WindDirectionDegrees,WindSpeedMPH,WindSpeedGustMPH,Humidity,HourlyPrecipIn,Conditions,Clouds,dailyrainin,SoftwareType,DateUTC
2013-01-22 00:04:00,23.8,15.4,22.09,WNW,298,0.0,0.0,70,0.00,,,0.00,Wunderground v.1.15,2013-01-22 06:04:00,
2013-01-22 00:10:00,23.6,15.2,22.09,WNW,298,0.0,0.0,70,0.00,,,0.00,Wunderground v.1.15,2013-01-22 06:10:00,
2013-01-22 00:15:00,23.5,15.1,22.09,WNW,298,0.0,0.0,70,0.00,,,0.00,Wunderground v.1.15,2013-01-22 06:15:00,
2013-01-22 00:20:00,23.4,15.1,22.09,WNW,298,0.0,0.0,70,0.00,,,0.00,Wunderground v.1.15,2013-01-22 06:20:00,
2013-01-22 00:26:00,23.3,15.3,22.09,WNW,298,0.0,0.0,71,0.00,,,0.00,Wunderground v.1.15,2013-01-22 06:26:00,
2013-01-22 00:31:00,23.2,15.2,22.09,WNW,298,0.0,0.0,71,0.00,,,0.00,Wunderground v.1.15,2013-01-22 06:31:00,
2013-01-22 00:36:00,23.1,15.1,22.09,WNW,298,0.0,0.0,71,0.00,,,0.00,Wunderground v.1.15,2013-01-22 06:36:00,
2013-01-22 00:42:00,23.0,15.0,22.09,WNW,298,0.0,0.0,71,0.00,,,0.00,Wunderground v.1.15,2013-01-22 06:42:00,
2013-01-22 00:48:00,23.0,15.0,22.09,WNW,298,0.0,0.0,71,0.00,,,0.00,Wunderground v.1.15,2013-01-22 06:48:00,
2013-01-22 00:53:00,23.0,15.0,22.09,WNW,298,0.0,0.0,71,0.00,,,0.00,Wunderground v.1.15,2013-01-22 06:53:00,
2013-01-22 00:59:00,23.0,15.0,22.09,WNW,298,0.0,0.0,71,0.00,,,0.00,Wunderground v.1.15,2013-01-22 06:59:00,
2013-01-22 01:04:00,22.9,14.9,17.68,WNW,298,0.0,0.0,71,0.00,,,0.00,Wunderground v.1.15,2013-01-22 07:04:00,
2013-01-22 01:09:00,22.9,14.9,17.68,WNW,298,0.0,0.0,71,0.00,,,0.00,Wunderground v.1.15,2013-01-22 07:09:00,
2013-01-22 01:15:00,22.9,14.9,16.29,WNW,298,0.0,0.0,71,0.00,,,0.00,Wunderground v.1.15,2013-01-22 07:15:00,
2013-01-22 01:20:00,22.8,14.8,16.29,WNW,298,0.0,0.0,71,0.00,,,0.00,Wunderground v.1.15,2013-01-22 07:20:00,
2013-01-22 01:26:00,22.8,14.8,16.29,WNW,298,0.0,0.0,71,0.00,,,0.00,Wunderground v.1.15,2013-01-22 07:26:00,
2013-01-22 01:31:00,22.8,14.8,17.86,WNW,298,0.0,0.0,71,0.00,,,0.00,Wunderground v.1.15,2013-01-22 07:31:00,
2013-01-22 01:37:00,22.7,14.7,17.86,WNW,298,0.0,0.0,71,0.00,,,0.00,Wunderground v.1.15,2013-01-22 07:37:00,
2013-01-22 01:42:00,22.7,15.0,17.86,WNW,298,0.0,0.0,72,0.00,,,0.00,Wunderground v.1.15,2013-01-22 07:42:00,
2013-01-22 01:48:00,22.7,15.0,17.86,WNW,298,0.0,0.0,72,0.00,,,0.00,Wunderground v.1.15,2013-01-22 07:48:00,
2013-01-22 01:53:00,22.7,15.0,17.86,WNW,298,0.0,0.0,72,0.00,,,0.00,Wunderground v.1.15,2013-01-22 07:53:00,
2013-01-22 01:58:00,22.7,15.0,16.59,WNW,298,0.0,0.0,72,0.00,,,0.00,Wunderground v.1.15,2013-01-22 07:58:00,
2013-01-22 02:03:00,22.6,14.9,16.59,WNW,298,0.0,0.0,72,0.00,,,0.00,Wunderground v.1.15,2013-01-22 08:03:00,
2013-01-22 02:08:00,22.5,14.8,16.59,WNW,298,0.0,0.0,72,0.00,,,0.00,Wunderground v.1.15,2013-01-22 08:08:00,
2013-01-22 02:13:00,22.5,14.8,16.59,WNW,298,0.0,0.0,72,0.00,,,0.00,Wunderground v.1.15,2013-01-22 08:13:00,
2013-01-22 02:18:00,22.4,14.7,16.59,WNW,298,0.0,0.0,72,0.00,,,0.00,Wunderground v.1.15,2013-01-22 08:18:00,
2013-01-22 02:23:00,22.3,14.6,16.59,WNW,298,0.0,0.0,72,0.00,,,0.00,Wunderground v.1.15,2013-01-22 08:23:00,
2013-01-22 02:28:00,22.2,14.5,16.59,WNW,298,0.0,0.0,72,0.00,,,0.00,Wunderground v.1.15,2013-01-22 08:28:00,
2013-01-22 02:33:00,22.1,14.4,16.59,WNW,298,0.0,0.0,72,0.00,,,0.00,Wunderground v.1.15,2013-01-22 08:33:00,
2013-01-22 02:38:00,22.0,14.7,16.59,WNW,298,0.0,0.0,73,0.00,,,0.00,Wunderground v.1.15,2013-01-22 08:38:00,
2013-01-22 02:43:00,21.9,14.6,17.25,WNW,298,0.0,0.0,73,0.00,,,0.00,Wunderground v.1.15,2013-01-22 08:43:00,
2013-01-22 02:48:00,21.9,14.6,17.25,WNW,298,0.0,0.0,73,0.00,,,0.00,Wunderground v.1.15,2013-01-22 08:48:00,
2013-01-22 02:53:00,21.8,14.8,17.25,WNW,298,0.0,0.0,74,0.00,,,0.00,Wunderground v.1.15,2013-01-22 08:53:00,
2013-01-22 02:58:00,21.7,14.7,17.25,WNW,298,0.0,0.0,74,0.00,,,0.00,Wunderground v.1.15,2013-01-22 08:58:00,
2013-01-22 03:03:00,21.7,14.7,17.25,WNW,298,0.0,0.0,74,0.00,,,0.00,Wunderground v.1.15,2013-01-22 09:03:00,
2013-01-22 03:08:00,21.6,14.9,17.25,WNW,298,0.0,0.0,75,0.00,,,0.00,Wunderground v.1.15,2013-01-22 09:08:00,
2013-01-22 03:13:00,21.5,14.8,17.25,WNW,298,0.0,0.0,75,0.00,,,0.00,Wunderground v.1.15,2013-01-22 09:13:00,
2013-01-22 03:18:00,21.5,14.8,17.25,WNW,298,0.0,0.0,75,0.00,,,0.00,Wunderground v.1.15,2013-01-22 09:18:00,
2013-01-22 03:23:00,21.4,14.7,17.25,WNW,298,0.0,0.0,75,0.00,,,0.00,Wunderground v.1.15,2013-01-22 09:23:00,
2013-01-22 03:28:00,21.3,14.6,17.25,WNW,298,0.0,0.0,75,0.00,,,0.00,Wunderground v.1.15,2013-01-22 09:28:00,
2013-01-22 03:33:00,21.3,14.9,17.25,WNW,298,0.0,0.0,76,0.00,,,0.00,Wunderground v.1.15,2013-01-22 09:33:00,
2013-01-22 03:39:00,21.3,14.9,17.25,WNW,298,0.0,0.0,76,0.00,,,0.00,Wunderground v.1.15,2013-01-22 09:39:00,
2013-01-22 03:44:00,21.2,14.8,17.25,WNW,298,0.0,0.0,76,0.00,,,0.00,Wunderground v.1.15,2013-01-22 09:44:00,
2013-01-22 03:49:00,21.2,14.8,17.25,WNW,298,0.0,0.0,76,0.00,,,0.00,Wunderground v.1.15,2013-01-22 09:49:00,
2013-01-22 03:54:00,21.1,15.0,17.83,WNW,298,0.0,0.0,77,0.00,,,0.00,Wunderground v.1.15,2013-01-22 09:54:00,
2013-01-22 03:59:00,21.1,15.0,17.83,WNW,298,0.0,0.0,77,0.00,,,0.00,Wunderground v.1.15,2013-01-22 09:59:00,
2013-01-22 04:04:00,21.0,14.9,17.83,WNW,298,0.0,1.0,77,0.00,,,0.00,Wunderground v.1.15,2013-01-22 10:04:00,
2013-01-22 04:09:00,20.9,14.8,17.91,WNW,298,0.0,1.0,77,0.00,,,0.00,Wunderground v.1.15,2013-01-22 10:09:00,
2013-01-22 04:14:00,20.9,14.8,17.91,WNW,298,0.0,0.0,77,0.00,,,0.00,Wunderground v.1.15,2013-01-22 10:14:00,
2013-01-22 04:19:00,20.9,15.1,17.91,WNW,298,0.0,1.0,78,0.00,,,0.00,Wunderground v.1.15,2013-01-22 10:19:00,
2013-01-22 04:24:00,20.9,15.1,17.91,WNW,298,0.0,0.0,78,0.00,,,0.00,Wunderground v.1.15,2013-01-22 10:24:00,
2013-01-22 04:29:00,20.8,15.0,17.91,WNW,298,0.0,0.0,78,0.00,,,0.00,Wunderground v.1.15,2013-01-22 10:29:00,
2013-01-22 04:34:00,20.8,15.0,17.91,WNW,298,0.0,0.0,78,0.00,,,0.00,Wunderground v.1.15,2013-01-22 10:34:00,
2013-01-22 04:39:00,20.7,14.9,17.91,WNW,298,0.0,0.0,78,0.00,,,0.00,Wunderground v.1.15,2013-01-22 10:39:00,
2013-01-22 04:44:00,20.7,14.9,17.91,WNW,298,0.0,0.0,78,0.00,,,0.00,Wunderground v.1.15,2013-01-22 10:44:00,
2013-01-22 04:49:00,20.6,14.8,17.91,WNW,298,0.0,0.0,78,0.00,,,0.00,Wunderground v.1.15,2013-01-22 10:49:00,
2013-01-22 04:54:00,20.5,14.7,17.91,WNW,298,0.0,0.0,78,0.00,,,0.00,Wunderground v.1.15,2013-01-22 10:54:00,
2013-01-22 04:59:00,20.5,15.0,17.91,WNW,298,0.0,0.0,79,0.00,,,0.00,Wunderground v.1.15,2013-01-22 10:59:00,
2013-01-22 05:04:00,20.4,14.9,17.91,WNW,298,0.0,0.0,79,0.00,,,0.00,Wunderground v.1.15,2013-01-22 11:04:00,
2013-01-22 05:09:00,20.4,14.9,17.91,WNW,298,0.0,0.0,79,0.00,,,0.00,Wunderground v.1.15,2013-01-22 11:09:00,
2013-01-22 05:14:00,20.4,14.9,17.91,WNW,298,0.0,0.0,79,0.00,,,0.00,Wunderground v.1.15,2013-01-22 11:14:00,
2013-01-22 05:19:00,20.4,14.9,17.91,WNW,298,0.0,0.0,79,0.00,,,0.00,Wunderground v.1.15,2013-01-22 11:19:00,
2013-01-22 05:24:00,20.4,14.9,17.91,WNW,298,0.0,0.0,79,0.00,,,0.00,Wunderground v.1.15,2013-01-22 11:24:00,
2013-01-22 05:29:00,20.3,14.8,17.91,WNW,298,0.0,0.0,79,0.00,,,0.00,Wunderground v.1.15,2013-01-22 11:29:00,
2013-01-22 05:34:00,20.3,14.8,17.91,WNW,298,0.0,0.0,79,0.00,,,0.00,Wunderground v.1.15,2013-01-22 11:34:00,
2013-01-22 05:39:00,20.3,14.8,17.91,WNW,298,0.0,0.0,79,0.00,,,0.00,Wunderground v.1.15,2013-01-22 11:39:00,
2013-01-22 05:44:00,20.3,14.8,17.91,WNW,298,0.0,0.0,79,0.00,,,0.00,Wunderground v.1.15,2013-01-22 11:44:00,
2013-01-22 05:49:00,20.2,14.7,17.91,WNW,298,0.0,0.0,79,0.00,,,0.00,Wunderground v.1.15,2013-01-22 11:49:00,
2013-01-22 05:54:00,20.1,14.6,17.91,WNW,298,0.0,0.0,79,0.00,,,0.00,Wunderground v.1.15,2013-01-22 11:54:00,
2013-01-22 06:00:00,20.1,14.6,17.91,WNW,298,0.0,0.0,79,0.00,,,0.00,Wunderground v.1.15,2013-01-22 12:00:00,
2013-01-22 06:05:00,20.0,14.5,17.91,WNW,298,0.0,0.0,79,0.00,,,0.00,Wunderground v.1.15,2013-01-22 12:05:00,
2013-01-22 06:10:00,20.0,14.5,17.91,WNW,298,0.0,0.0,79,0.00,,,0.00,Wunderground v.1.15,2013-01-22 12:10:00,
2013-01-22 06:15:00,19.9,14.4,17.91,WNW,298,0.0,0.0,79,0.00,,,0.00,Wunderground v.1.15,2013-01-22 12:15:00,
2013-01-22 06:20:00,19.8,14.3,17.91,WNW,298,0.0,0.0,79,0.00,,,0.00,Wunderground v.1.15,2013-01-22 12:20:00,
2013-01-22 06:25:00,19.7,14.2,17.91,WNW,298,0.0,0.0,79,0.00,,,0.00,Wunderground v.1.15,2013-01-22 12:25:00,
2013-01-22 06:30:00,19.7,14.2,17.91,WNW,298,0.0,0.0,79,0.00,,,0.00,Wunderground v.1.15,2013-01-22 12:30:00,
2013-01-22 06:35:00,19.7,14.2,17.91,WNW,298,0.0,0.0,79,0.00,,,0.00,Wunderground v.1.15,2013-01-22 12:35:00,
2013-01-22 06:40:00,19.6,14.1,17.91,WNW,298,0.0,0.0,79,0.00,,,0.00,Wunderground v.1.15,2013-01-22 12:40:00,
2013-01-22 06:45:00,19.5,14.0,17.91,WNW,298,0.0,0.0,79,0.00,,,0.00,Wunderground v.1.15,2013-01-22 12:45:00,
2013-01-22 06:50:00,19.5,14.3,17.91,WNW,298,0.0,0.0,80,0.00,,,0.00,Wunderground v.1.15,2013-01-22 12:50:00,
2013-01-22 06:55:00,19.5,14.3,17.91,WNW,298,0.0,0.0,80,0.00,,,0.00,Wunderground v.1.15,2013-01-22 12:55:00,
2013-01-22 07:00:00,19.5,14.3,17.91,WNW,298,0.0,0.0,80,0.00,,,0.00,Wunderground v.1.15,2013-01-22 13:00:00,
2013-01-22 07:05:00,19.6,14.4,17.91,WNW,298,0.0,0.0,80,0.00,,,0.00,Wunderground v.1.15,2013-01-22 13:05:00,
2013-01-22 07:10:00,19.7,14.8,17.91,WNW,298,0.0,0.0,81,0.00,,,0.00,Wunderground v.1.15,2013-01-22 13:10:00,
2013-01-22 07:15:00,19.7,14.8,17.91,WNW,298,0.0,0.0,81,0.00,,,0.00,Wunderground v.1.15,2013-01-22 13:15:00,
2013-01-22 07:20:00,20.0,15.1,17.91,WNW,298,0.0,0.0,81,0.00,,,0.00,Wunderground v.1.15,2013-01-22 13:20:00,
2013-01-22 07:25:00,20.2,15.6,17.91,WNW,288,0.0,0.0,82,0.00,,,0.00,Wunderground v.1.15,2013-01-22 13:25:00,
2013-01-22 07:30:00,20.5,15.9,17.91,WNW,289,0.0,0.0,82,0.00,,,0.00,Wunderground v.1.15,2013-01-22 13:30:00,
2013-01-22 07:36:00,20.7,16.1,18.49,WNW,289,0.0,0.0,82,0.00,,,0.00,Wunderground v.1.15,2013-01-22 13:36:00,
2013-01-22 07:41:00,21.0,16.4,18.49,WNW,289,0.0,0.0,82,0.00,,,0.00,Wunderground v.1.15,2013-01-22 13:41:00,
2013-01-22 07:47:00,21.2,16.6,18.49,WNW,289,0.0,0.0,82,0.00,,,0.00,Wunderground v.1.15,2013-01-22 13:47:00,
2013-01-22 07:52:00,21.4,16.8,18.49,WNW,289,0.0,0.0,82,0.00,,,0.00,Wunderground v.1.15,2013-01-22 13:52:00,
2013-01-22 07:57:00,21.7,16.8,18.49,WNW,289,0.0,0.0,81,0.00,,,0.00,Wunderground v.1.15,2013-01-22 13:57:00,
2013-01-22 08:02:00,21.9,17.0,16.94,WNW,288,0.0,0.0,81,0.00,,,0.00,Wunderground v.1.15,2013-01-22 14:02:00,
2013-01-22 08:07:00,22.2,17.3,16.94,WNW,289,0.0,1.0,81,0.00,,,0.00,Wunderground v.1.15,2013-01-22 14:07:00,
2013-01-22 08:12:00,22.6,17.6,16.94,WNW,289,0.0,0.0,81,0.00,,,0.00,Wunderground v.1.15,2013-01-22 14:12:00,
2013-01-22 08:17:00,22.9,17.9,16.94,WNW,288,0.0,1.0,81,0.00,,,0.00,Wunderground v.1.15,2013-01-22 14:17:00,
2013-01-22 08:22:00,23.9,18.6,16.94,WNW,288,0.0,0.0,80,0.00,,,0.00,Wunderground v.1.15,2013-01-22 14:22:00,
2013-01-22 08:27:00,25.2,19.3,16.94,WNW,288,0.0,1.0,78,0.00,,,0.00,Wunderground v.1.15,2013-01-22 14:27:00,
2013-01-22 08:33:00,26.4,19.5,16.94,WNW,289,0.0,0.0,75,0.00,,,0.00,Wunderground v.1.15,2013-01-22 14:33:00,
2013-01-22 08:38:00,27.4,19.9,17.70,WNW,288,0.0,1.0,73,0.00,,,0.00,Wunderground v.1.15,2013-01-22 14:38:00,
2013-01-22 08:43:00,28.1,19.6,17.70,East,92,0.0,3.0,70,0.00,,,0.00,Wunderground v.1.15,2013-01-22 14:43:00,
2013-01-22 08:48:00,28.5,19.3,17.70,South,185,0.0,3.0,68,0.00,,,0.00,Wunderground v.1.15,2013-01-22 14:48:00,
2013-01-22 08:53:00,29.2,19.6,17.70,South,186,0.0,1.0,67,0.00,,,0.00,Wunderground v.1.15,2013-01-22 14:53:00,
2013-01-22 08:58:00,29.7,19.7,18.13,South,184,0.0,1.0,66,0.00,,,0.00,Wunderground v.1.15,2013-01-22 14:58:00,
2013-01-22 09:03:00,30.3,19.9,18.13,ESE,117,0.0,1.0,65,0.00,,,0.00,Wunderground v.1.15,2013-01-22 15:03:00,
2013-01-22 09:08:00,30.9,20.1,18.13,North,355,0.0,1.0,64,0.00,,,0.00,Wunderground v.1.15,2013-01-22 15:08:00,
2013-01-22 09:13:00,31.3,20.2,18.13,SE,125,0.0,2.0,63,0.00,,,0.00,Wunderground v.1.15,2013-01-22 15:13:00,
2013-01-22 09:18:00,31.8,20.3,18.13,South,185,0.0,2.0,62,0.00,,,0.00,Wunderground v.1.15,2013-01-22 15:18:00,
2013-01-22 09:23:00,32.1,20.9,18.13,SE,134,1.0,1.0,63,0.00,,,0.00,Wunderground v.1.15,2013-01-22 15:23:00,
2013-01-22 09:28:00,32.7,21.1,18.13,ESE,110,0.0,1.0,62,0.00,,,0.00,Wunderground v.1.15,2013-01-22 15:28:00,
2013-01-22 09:33:00,33.2,21.2,18.13,ESE,116,1.0,2.0,61,0.00,,,0.00,Wunderground v.1.15,2013-01-22 15:33:00,
2013-01-22 09:38:00,33.6,21.2,18.13,SSW,200,0.0,2.0,60,0.00,,,0.00,Wunderground v.1.15,2013-01-22 15:38:00,
2013-01-22 09:43:00,33.9,21.5,18.13,SE,141,0.0,1.0,60,0.00,,,0.00,Wunderground v.1.15,2013-01-22 15:43:00,
2013-01-22 09:48:00,34.4,21.9,18.13,SE,136,0.0,2.0,60,0.00,,,0.00,Wunderground v.1.15,2013-01-22 15:48:00,
2013-01-22 09:53:00,34.5,21.6,18.13,SW,232,0.0,1.0,59,0.00,,,0.00,Wunderground v.1.15,2013-01-22 15:53:00,
2013-01-22 09:58:00,35.5,23.4,18.13,SE,142,1.0,1.0,61,0.00,,,0.00,Wunderground v.1.15,2013-01-22 15:58:00,
2013-01-22 10:03:00,36.4,23.8,18.13,SSE,164,0.0,4.0,60,0.00,,,0.00,Wunderground v.1.15,2013-01-22 16:03:00,
2013-01-22 10:08:00,36.9,23.5,18.13,North,355,0.0,4.0,58,0.00,,,0.00,Wunderground v.1.15,2013-01-22 16:08:00,
2013-01-22 10:13:00,37.3,23.0,18.13,NW,306,1.0,2.0,56,0.00,,,0.00,Wunderground v.1.15,2013-01-22 16:13:00,
2013-01-22 10:18:00,37.2,22.9,18.13,SSW,208,0.0,3.0,56,0.00,,,0.00,Wunderground v.1.15,2013-01-22 16:18:00,
2013-01-22 10:23:00,37.4,22.7,18.13,SW,215,0.0,3.0,55,0.00,,,0.00,Wunderground v.1.15,2013-01-22 16:23:00,
2013-01-22 10:29:00,38.3,24.0,18.13,North,360,0.0,3.0,56,0.00,,,0.00,Wunderground v.1.15,2013-01-22 16:29:00,
2013-01-22 10:34:00,38.8,24.0,18.13,SSE,150,1.0,1.0,55,0.00,,,0.00,Wunderground v.1.15,2013-01-22 16:34:00,
2013-01-22 10:39:00,39.0,23.7,18.13,SE,126,1.0,3.0,54,0.00,,,0.00,Wunderground v.1.15,2013-01-22 16:39:00,
2013-01-22 10:44:00,39.4,24.6,18.13,SSE,153,0.0,2.0,55,0.00,,,0.00,Wunderground v.1.15,2013-01-22 16:44:00,
2013-01-22 10:49:00,39.8,24.5,18.13,SSE,149,0.0,4.0,54,0.00,,,0.00,Wunderground v.1.15,2013-01-22 16:49:00,
2013-01-22 10:54:00,39.8,24.5,18.13,SE,143,0.0,2.0,54,0.00,,,0.00,Wunderground v.1.15,2013-01-22 16:54:00,
2013-01-22 10:59:00,40.0,24.7,18.13,South,174,0.0,2.0,54,0.00,,,0.00,Wunderground v.1.15,2013-01-22 16:59:00,
2013-01-22 11:04:00,40.2,24.9,18.13,SSE,165,0.0,1.0,54,0.00,,,0.00,Wunderground v.1.15,2013-01-22 17:04:00,
2013-01-22 11:09:00,40.1,23.9,18.13,SSE,162,1.0,3.0,52,0.00,,,0.00,Wunderground v.1.15,2013-01-22 17:09:00,
2013-01-22 11:14:00,39.8,24.5,18.13,ESE,115,0.0,0.0,54,0.00,,,0.00,Wunderground v.1.15,2013-01-22 17:14:00,
2013-01-22 11:19:00,39.6,24.7,18.13,ESE,114,0.0,1.0,55,0.00,,,0.00,Wunderground v.1.15,2013-01-22 17:19:00,
2013-01-22 11:24:00,39.5,24.7,18.13,ESE,115,0.0,0.0,55,0.00,,,0.00,Wunderground v.1.15,2013-01-22 17:24:00,
2013-01-22 11:29:00,39.6,24.7,18.13,ESE,114,0.0,1.0,55,0.00,,,0.00,Wunderground v.1.15,2013-01-22 17:29:00,
2013-01-22 11:34:00,39.8,24.9,18.13,ESE,114,0.0,0.0,55,0.00,,,0.00,Wunderground v.1.15,2013-01-22 17:34:00,
2013-01-22 11:39:00,40.0,24.7,18.13,ESE,114,0.0,1.0,54,0.00,,,0.00,Wunderground v.1.15,2013-01-22 17:39:00,
2013-01-22 11:44:00,40.1,24.8,18.13,ESE,115,0.0,0.0,54,0.00,,,0.00,Wunderground v.1.15,2013-01-22 17:44:00,
2013-01-22 11:49:00,40.1,24.8,18.13,ESE,115,0.0,0.0,54,0.00,,,0.00,Wunderground v.1.15,2013-01-22 17:49:00,
2013-01-22 11:54:00,40.1,24.8,18.13,ESE,115,0.0,0.0,54,0.00,,,0.00,Wunderground v.1.15,2013-01-22 17:54:00,
2013-01-22 11:59:00,40.3,25.0,18.13,ESE,115,0.0,0.0,54,0.00,,,0.00,Wunderground v.1.15,2013-01-22 17:59:00,
2013-01-22 12:04:00,40.6,25.2,18.13,SSE,153,0.0,1.0,54,0.00,,,0.00,Wunderground v.1.15,2013-01-22 18:04:00,
2013-01-22 12:09:00,41.0,25.6,18.13,SSE,153,0.0,1.0,54,0.00,,,0.00,Wunderground v.1.15,2013-01-22 18:09:00,
2013-01-22 12:14:00,41.3,25.4,18.13,SSE,153,0.0,0.0,53,0.00,,,0.00,Wunderground v.1.15,2013-01-22 18:14:00,
2013-01-22 12:19:00,42.1,26.6,18.13,SSE,153,0.0,1.0,54,0.00,,,0.00,Wunderground v.1.15,2013-01-22 18:19:00,
2013-01-22 12:24:00,42.4,25.5,18.13,SSE,154,0.0,1.0,51,0.00,,,0.00,Wunderground v.1.15,2013-01-22 18:24:00,
2013-01-22 12:29:00,42.2,25.3,18.13,SSE,151,0.0,1.0,51,0.00,,,0.00,Wunderground v.1.15,2013-01-22 18:29:00,
2013-01-22 12:34:00,42.6,26.2,18.13,SSE,151,0.0,0.0,52,0.00,,,0.00,Wunderground v.1.15,2013-01-22 18:34:00,
2013-01-22 12:39:00,42.9,26.0,18.13,SSE,150,0.0,1.0,51,0.00,,,0.00,Wunderground v.1.15,2013-01-22 18:39:00,
2013-01-22 12:44:00,44.3,27.3,18.13,SSE,153,1.0,2.0,51,0.00,,,0.00,Wunderground v.1.15,2013-01-22 18:44:00,
2013-01-22 12:49:00,45.0,27.0,18.13,SSE,153,0.0,2.0,49,0.00,,,0.00,Wunderground v.1.15,2013-01-22 18:49:00,
2013-01-22 12:54:00,45.0,27.5,18.13,SE,134,0.0,1.0,50,0.00,,,0.00,Wunderground v.1.15,2013-01-22 18:54:00,
2013-01-22 12:59:00,45.3,27.2,18.13,SE,130,0.0,1.0,49,0.00,,,0.00,Wunderground v.1.15,2013-01-22 18:59:00,
2013-01-22 13:04:00,45.3,27.2,18.13,SE,130,0.0,2.0,49,0.00,,,0.00,Wunderground v.1.15,2013-01-22 19:04:00,
2013-01-22 13:09:00,45.8,27.7,18.13,SSW,198,3.0,3.0,49,0.00,,,0.00,Wunderground v.1.15,2013-01-22 19:09:00,
2013-01-22 13:14:00,45.4,27.3,18.13,SSE,149,0.0,2.0,49,0.00,,,0.00,Wunderground v.1.15,2013-01-22 19:14:00,
2013-01-22 13:19:00,45.8,27.2,18.13,SSE,154,0.0,3.0,48,0.00,,,0.00,Wunderground v.1.15,2013-01-22 19:19:00,
2013-01-22 13:24:00,45.7,27.6,18.13,SE,145,0.0,1.0,49,0.00,,,0.00,Wunderground v.1.15,2013-01-22 19:24:00,
2013-01-22 13:29:00,45.6,27.5,18.13,SE,144,0.0,2.0,49,0.00,,,0.00,Wunderground v.1.15,2013-01-22 19:29:00,
2013-01-22 13:34:00,45.2,26.7,18.13,SSW,205,0.0,9.0,48,0.00,,,0.00,Wunderground v.1.15,2013-01-22 19:34:00,
2013-01-22 13:39:00,45.2,27.2,18.13,SSE,150,0.0,9.0,49,0.00,,,0.00,Wunderground v.1.15,2013-01-22 19:39:00,
2013-01-22 13:44:00,45.6,28.0,18.13,South,190,1.0,6.0,50,0.00,,,0.00,Wunderground v.1.15,2013-01-22 19:44:00,
2013-01-22 13:49:00,45.9,27.8,18.13,ESE,110,0.0,6.0,49,0.00,,,0.00,Wunderground v.1.15,2013-01-22 19:49:00,
2013-01-22 13:54:00,46.2,28.1,18.13,SSE,161,0.0,2.0,49,0.00,,,0.00,Wunderground v.1.15,2013-01-22 19:54:00,
2013-01-22 13:59:00,46.5,27.8,18.13,SSE,162,1.0,2.0,48,0.00,,,0.00,Wunderground v.1.15,2013-01-22 19:59:00,
2013-01-22 14:04:00,46.6,27.9,18.13,SSE,165,0.0,3.0,48,0.00,,,0.00,Wunderground v.1.15,2013-01-22 20:04:00,
2013-01-22 14:09:00,46.7,28.0,18.13,SE,140,2.0,3.0,48,0.00,,,0.00,Wunderground v.1.15,2013-01-22 20:09:00,
2013-01-22 14:14:00,46.8,28.1,18.13,SE,130,0.0,3.0,48,0.00,,,0.00,Wunderground v.1.15,2013-01-22 20:14:00,
2013-01-22 14:19:00,46.9,28.2,18.13,ENE,76,0.0,3.0,48,0.00,,,0.00,Wunderground v.1.15,2013-01-22 20:19:00,
2013-01-22 14:24:00,46.9,28.2,18.13,ENE,68,0.0,1.0,48,0.00,,,0.00,Wunderground v.1.15,2013-01-22 20:24:00,
2013-01-22 14:29:00,47.0,28.3,18.13,ENE,68,0.0,1.0,48,0.00,,,0.00,Wunderground v.1.15,2013-01-22 20:29:00,
2013-01-22 14:34:00,47.0,28.3,18.13,SSE,159,0.0,1.0,48,0.00,,,0.00,Wunderground v.1.15,2013-01-22 20:34:00,
2013-01-22 14:39:00,46.9,27.7,18.13,SSE,166,0.0,2.0,47,0.00,,,0.00,Wunderground v.1.15,2013-01-22 20:39:00,
2013-01-22 14:44:00,46.9,28.2,18.13,East,88,0.0,1.0,48,0.00,,,0.00,Wunderground v.1.15,2013-01-22 20:44:00,
2013-01-22 14:49:00,46.9,28.2,18.13,SSE,152,0.0,1.0,48,0.00,,,0.00,Wunderground v.1.15,2013-01-22 20:49:00,
2013-01-22 14:54:00,46.9,27.7,18.13,SSE,150,0.0,1.0,47,0.00,,,0.00,Wunderground v.1.15,2013-01-22 20:54:00,
2013-01-22 15:00:00,46.9,27.7,17.35,SE,143,0.0,0.0,47,0.00,,,0.00,Wunderground v.1.15,2013-01-22 21:00:00,
2013-01-22 15:05:00,46.8,27.6,17.35,SE,136,0.0,3.0,47,0.00,,,0.00,Wunderground v.1.15,2013-01-22 21:05:00,
2013-01-22 15:10:00,46.7,28.0,17.35,SE,134,0.0,0.0,48,0.00,,,0.00,Wunderground v.1.15,2013-01-22 21:10:00,
2013-01-22 15:15:00,46.7,27.5,17.35,ESE,123,0.0,2.0,47,0.00,,,0.00,Wunderground v.1.15,2013-01-22 21:15:00,
2013-01-22 15:20:00,46.5,27.8,17.35,South,188,0.0,0.0,48,0.00,,,0.00,Wunderground v.1.15,2013-01-22 21:20:00,
2013-01-22 15:25:00,46.4,27.2,17.35,South,171,0.0,4.0,47,0.00,,,0.00,Wunderground v.1.15,2013-01-22 21:25:00,
2013-01-22 15:30:00,46.3,27.7,17.35,South,170,0.0,1.0,48,0.00,,,0.00,Wunderground v.1.15,2013-01-22 21:30:00,
2013-01-22 15:31:00,46.3,27.7,17.35,South,169,0.0,1.0,48,0.00,,,0.00,Wunderground v.1.15,2013-01-22 21:31:00,
2013-01-22 15:36:00,46.3,27.7,17.35,SSE,168,0.0,1.0,48,0.00,,,0.00,Wunderground v.1.15,2013-01-22 21:36:00,
2013-01-22 15:42:00,46.3,27.7,17.35,SSE,159,0.0,0.0,48,0.00,,,0.00,Wunderground v.1.15,2013-01-22 21:42:00,
2013-01-22 15:47:00,46.1,27.5,17.35,SSE,153,0.0,2.0,48,0.00,,,0.00,Wunderground v.1.15,2013-01-22 21:47:00,
2013-01-22 15:52:00,46.1,27.5,17.35,SE,140,0.0,1.0,48,0.00,,,0.00,Wunderground v.1.15,2013-01-22 21:52:00,
2013-01-22 15:57:00,46.2,27.6,17.35,South,173,0.0,2.0,48,0.00,,,0.00,Wunderground v.1.15,2013-01-22 21:57:00,
2013-01-22 16:02:00,46.2,27.6,17.35,ESE,119,0.0,0.0,48,0.00,,,0.00,Wunderground v.1.15,2013-01-22 22:02:00,
2013-01-22 16:07:00,46.1,27.5,17.35,SE,124,0.0,2.0,48,0.00,,,0.00,Wunderground v.1.15,2013-01-22 22:07:00,
2013-01-22 16:12:00,46.0,27.4,17.35,South,177,0.0,0.0,48,0.00,,,0.00,Wunderground v.1.15,2013-01-22 22:12:00,
2013-01-22 16:17:00,45.8,27.2,17.35,East,94,0.0,3.0,48,0.00,,,0.00,Wunderground v.1.15,2013-01-22 22:17:00,
2013-01-22 16:22:00,45.5,27.4,17.35,East,96,0.0,1.0,49,0.00,,,0.00,Wunderground v.1.15,2013-01-22 22:22:00,
2013-01-22 16:27:00,45.4,27.3,17.35,East,96,0.0,1.0,49,0.00,,,0.00,Wunderground v.1.15,2013-01-22 22:27:00,
2013-01-22 16:32:00,45.2,27.2,17.35,East,99,0.0,0.0,49,0.00,,,0.00,Wunderground v.1.15,2013-01-22 22:32:00,
2013-01-22 16:37:00,45.1,27.6,17.35,SSE,163,0.0,2.0,50,0.00,,,0.00,Wunderground v.1.15,2013-01-22 22:37:00,
2013-01-22 16:42:00,45.0,27.5,17.35,SSW,201,0.0,4.0,50,0.00,,,0.00,Wunderground v.1.15,2013-01-22 22:42:00,
2013-01-22 16:47:00,44.9,27.4,17.35,SE,137,0.0,4.0,50,0.00,,,0.00,Wunderground v.1.15,2013-01-22 22:47:00,
2013-01-22 16:52:00,44.8,27.3,17.35,SE,137,0.0,0.0,50,0.00,,,0.00,Wunderground v.1.15,2013-01-22 22:52:00,
2013-01-22 16:57:00,44.6,27.1,17.35,SE,134,0.0,1.0,50,0.00,,,0.00,Wunderground v.1.15,2013-01-22 22:57:00,
2013-01-22 17:02:00,44.4,27.4,17.35,SE,134,0.0,1.0,51,0.00,,,0.00,Wunderground v.1.15,2013-01-22 23:02:00,
2013-01-22 17:07:00,44.3,27.3,17.35,SE,135,0.0,1.0,51,0.00,,,0.00,Wunderground v.1.15,2013-01-22 23:07:00,
2013-01-22 17:12:00,44.1,27.1,17.35,SE,135,0.0,0.0,51,0.00,,,0.00,Wunderground v.1.15,2013-01-22 23:12:00,
2013-01-22 17:17:00,43.8,27.3,17.35,SE,135,0.0,0.0,52,0.00,,,0.00,Wunderground v.1.15,2013-01-22 23:17:00,
2013-01-22 17:22:00,43.6,27.1,17.35,SE,134,0.0,0.0,52,0.00,,,0.00,Wunderground v.1.15,2013-01-22 23:22:00,
2013-01-22 17:27:00,43.3,26.8,17.35,SE,134,0.0,0.0,52,0.00,,,0.00,Wunderground v.1.15,2013-01-22 23:27:00,
2013-01-22 17:32:00,43.0,27.0,17.35,SE,135,0.0,0.0,53,0.00,,,0.00,Wunderground v.1.15,2013-01-22 23:32:00,
2013-01-22 17:37:00,42.7,26.7,17.35,SE,135,0.0,0.0,53,0.00,,,0.00,Wunderground v.1.15,2013-01-22 23:37:00,
2013-01-22 17:43:00,42.5,26.6,17.35,SE,134,0.0,0.0,53,0.00,,,0.00,Wunderground v.1.15,2013-01-22 23:43:00,
2013-01-22 17:48:00,42.4,26.5,17.35,SE,134,0.0,0.0,53,0.00,,,0.00,Wunderground v.1.15,2013-01-22 23:48:00,
2013-01-22 17:53:00,42.2,26.3,17.35,SE,135,0.0,0.0,53,0.00,,,0.00,Wunderground v.1.15,2013-01-22 23:53:00,
2013-01-22 17:58:00,41.9,26.0,17.35,SE,135,0.0,0.0,53,0.00,,,0.00,Wunderground v.1.15,2013-01-22 23:58:00,
2013-01-22 18:03:00,41.6,25.7,17.35,SE,135,0.0,0.0,53,0.00,,,0.00,Wunderground v.1.15,2013-01-23 00:03:00,
2013-01-22 18:08:00,41.3,25.9,17.35,SE,134,0.0,0.0,54,0.00,,,0.00,Wunderground v.1.15,2013-01-23 00:08:00,
2013-01-22 18:13:00,41.0,26.5,17.35,SE,135,0.0,0.0,56,0.00,,,0.00,Wunderground v.1.15,2013-01-23 00:13:00,
2013-01-22 18:18:00,40.6,26.1,17.35,SE,135,0.0,0.0,56,0.00,,,0.00,Wunderground v.1.15,2013-01-23 00:18:00,
2013-01-22 18:23:00,40.2,26.2,17.35,SE,135,0.0,0.0,57,0.00,,,0.00,Wunderground v.1.15,2013-01-23 00:23:00,
2013-01-22 18:28:00,39.8,26.2,17.35,SE,134,0.0,0.0,58,0.00,,,0.00,Wunderground v.1.15,2013-01-23 00:28:00,
2013-01-22 18:33:00,39.6,26.0,17.35,SE,134,0.0,0.0,58,0.00,,,0.00,Wunderground v.1.15,2013-01-23 00:33:00,
2013-01-22 18:38:00,39.3,25.7,17.35,SE,135,0.0,0.0,58,0.00,,,0.00,Wunderground v.1.15,2013-01-23 00:38:00,
2013-01-22 18:43:00,39.1,25.6,17.35,SE,135,0.0,0.0,58,0.00,,,0.00,Wunderground v.1.15,2013-01-23 00:43:00,
2013-01-22 18:48:00,38.9,24.9,17.35,SE,134,0.0,0.0,57,0.00,,,0.00,Wunderground v.1.15,2013-01-23 00:48:00,
2013-01-22 18:53:00,38.6,25.1,17.35,SE,135,0.0,0.0,58,0.00,,,0.00,Wunderground v.1.15,2013-01-23 00:53:00,
2013-01-22 18:58:00,38.4,24.9,17.35,SE,135,0.0,0.0,58,0.00,,,0.00,Wunderground v.1.15,2013-01-23 00:58:00,
2013-01-22 19:03:00,38.2,25.1,17.35,SE,134,0.0,0.0,59,0.00,,,0.00,Wunderground v.1.15,2013-01-23 01:03:00,
2013-01-22 19:08:00,38.0,24.9,17.35,SE,134,0.0,0.0,59,0.00,,,0.00,Wunderground v.1.15,2013-01-23 01:08:00,
2013-01-22 19:13:00,37.8,24.7,17.35,SE,135,0.0,0.0,59,0.00,,,0.00,Wunderground v.1.15,2013-01-23 01:13:00,
2013-01-22 19:18:00,37.6,24.6,17.35,SE,135,0.0,0.0,59,0.00,,,0.00,Wunderground v.1.15,2013-01-23 01:18:00,
2013-01-22 19:23:00,37.4,24.4,17.35,SE,134,0.0,0.0,59,0.00,,,0.00,Wunderground v.1.15,2013-01-23 01:23:00,
2013-01-22 19:28:00,37.2,24.6,17.35,SE,135,0.0,0.0,60,0.00,,,0.00,Wunderground v.1.15,2013-01-23 01:28:00,
2013-01-22 19:33:00,36.9,24.3,17.35,SE,135,0.0,0.0,60,0.00,,,0.00,Wunderground v.1.15,2013-01-23 01:33:00,
2013-01-22 19:38:00,36.7,24.1,17.35,SE,134,0.0,0.0,60,0.00,,,0.00,Wunderground v.1.15,2013-01-23 01:38:00,
2013-01-22 19:43:00,36.5,24.3,17.35,SE,135,0.0,0.0,61,0.00,,,0.00,Wunderground v.1.15,2013-01-23 01:43:00,
2013-01-22 19:48:00,36.3,24.1,17.35,SE,135,0.0,0.0,61,0.00,,,0.00,Wunderground v.1.15,2013-01-23 01:48:00,
2013-01-22 19:53:00,36.2,24.0,17.35,SE,135,0.0,0.0,61,0.00,,,0.00,Wunderground v.1.15,2013-01-23 01:53:00,
2013-01-22 19:58:00,36.0,24.2,17.35,SE,134,0.0,0.0,62,0.00,,,0.00,Wunderground v.1.15,2013-01-23 01:58:00,
2013-01-22 20:03:00,35.8,24.0,17.35,SE,135,0.0,0.0,62,0.00,,,0.00,Wunderground v.1.15,2013-01-23 02:03:00,
2013-01-22 20:08:00,35.7,23.9,17.35,SE,135,0.0,0.0,62,0.00,,,0.00,Wunderground v.1.15,2013-01-23 02:08:00,
2013-01-22 20:13:00,35.5,23.8,17.35,SE,134,0.0,0.0,62,0.00,,,0.00,Wunderground v.1.15,2013-01-23 02:13:00,
2013-01-22 20:18:00,35.4,23.7,17.35,SE,134,0.0,0.0,62,0.00,,,0.00,Wunderground v.1.15,2013-01-23 02:18:00,
2013-01-22 20:23:00,35.2,23.5,17.35,SE,135,0.0,0.0,62,0.00,,,0.00,Wunderground v.1.15,2013-01-23 02:23:00,
2013-01-22 20:28:00,35.0,23.7,17.35,SE,135,0.0,0.0,63,0.00,,,0.00,Wunderground v.1.15,2013-01-23 02:28:00,
2013-01-22 20:33:00,34.8,23.5,17.35,SE,135,0.0,0.0,63,0.00,,,0.00,Wunderground v.1.15,2013-01-23 02:33:00,
2013-01-22 20:38:00,34.5,23.6,17.35,SE,134,0.0,0.0,64,0.00,,,0.00,Wunderground v.1.15,2013-01-23 02:38:00,
2013-01-22 20:43:00,34.4,23.5,17.35,SE,135,0.0,0.0,64,0.00,,,0.00,Wunderground v.1.15,2013-01-23 02:43:00,
2013-01-22 20:49:00,34.3,23.4,17.35,SE,135,0.0,0.0,64,0.00,,,0.00,Wunderground v.1.15,2013-01-23 02:49:00,
2013-01-22 20:54:00,34.1,23.2,17.35,SE,135,0.0,0.0,64,0.00,,,0.00,Wunderground v.1.15,2013-01-23 02:54:00,
2013-01-22 20:59:00,33.8,22.9,17.35,SE,134,0.0,0.0,64,0.00,,,0.00,Wunderground v.1.15,2013-01-23 02:59:00,
2013-01-22 21:04:00,33.6,23.1,17.35,SE,135,0.0,0.0,65,0.00,,,0.00,Wunderground v.1.15,2013-01-23 03:04:00,
2013-01-22 21:09:00,33.4,22.9,17.35,SE,135,0.0,0.0,65,0.00,,,0.00,Wunderground v.1.15,2013-01-23 03:09:00,
2013-01-22 21:14:00,33.3,22.8,17.35,SE,134,0.0,0.0,65,0.00,,,0.00,Wunderground v.1.15,2013-01-23 03:14:00,
2013-01-22 21:19:00,33.0,22.5,17.35,SE,134,0.0,0.0,65,0.00,,,0.00,Wunderground v.1.15,2013-01-23 03:19:00,
2013-01-22 21:24:00,32.9,22.8,17.35,SE,135,0.0,0.0,66,0.00,,,0.00,Wunderground v.1.15,2013-01-23 03:24:00,
2013-01-22 21:29:00,32.7,22.6,17.35,SE,135,0.0,0.0,66,0.00,,,0.00,Wunderground v.1.15,2013-01-23 03:29:00,
2013-01-22 21:34:00,32.5,22.4,17.35,SE,135,0.0,0.0,66,0.00,,,0.00,Wunderground v.1.15,2013-01-23 03:34:00,
2013-01-22 21:39:00,32.3,22.6,17.35,SE,135,0.0,0.0,67,0.00,,,0.00,Wunderground v.1.15,2013-01-23 03:39:00,
2013-01-22 21:44:00,32.2,22.8,17.35,SE,134,0.0,0.0,68,0.00,,,0.00,Wunderground v.1.15,2013-01-23 03:44:00,
2013-01-22 21:49:00,32.1,22.7,17.35,SE,134,0.0,0.0,68,0.00,,,0.00,Wunderground v.1.15,2013-01-23 03:49:00,
2013-01-22 21:54:00,31.9,22.5,17.35,SE,135,0.0,0.0,68,0.00,,,0.00,Wunderground v.1.15,2013-01-23 03:54:00,
2013-01-22 21:59:00,31.9,22.9,17.35,SE,135,0.0,0.0,69,0.00,,,0.00,Wunderground v.1.15,2013-01-23 03:59:00,
2013-01-22 22:04:00,31.7,22.7,17.35,SE,134,0.0,0.0,69,0.00,,,0.00,Wunderground v.1.15,2013-01-23 04:04:00,
2013-01-22 22:09:00,31.6,22.6,17.35,SE,135,0.0,0.0,69,0.00,,,0.00,Wunderground v.1.15,2013-01-23 04:09:00,
2013-01-22 22:14:00,31.5,22.5,17.35,SE,135,0.0,0.0,69,0.00,,,0.00,Wunderground v.1.15,2013-01-23 04:14:00,
2013-01-22 22:19:00,31.4,22.4,17.35,SE,134,0.0,0.0,69,0.00,,,0.00,Wunderground v.1.15,2013-01-23 04:19:00,
2013-01-22 22:24:00,31.3,22.6,17.35,SE,134,0.0,0.0,70,0.00,,,0.00,Wunderground v.1.15,2013-01-23 04:24:00,
2013-01-22 22:29:00,31.2,22.5,17.35,SE,135,0.0,0.0,70,0.00,,,0.00,Wunderground v.1.15,2013-01-23 04:29:00,
2013-01-22 22:34:00,31.1,22.8,17.35,SE,134,0.0,0.0,71,0.00,,,0.00,Wunderground v.1.15,2013-01-23 04:34:00,
2013-01-22 22:39:00,31.0,22.7,17.35,SE,134,0.0,0.0,71,0.00,,,0.00,Wunderground v.1.15,2013-01-23 04:39:00,
2013-01-22 22:44:00,30.9,22.6,17.35,SE,135,0.0,0.0,71,0.00,,,0.00,Wunderground v.1.15,2013-01-23 04:44:00,
2013-01-22 22:49:00,30.9,22.6,17.35,SE,134,0.0,0.0,71,0.00,,,0.00,Wunderground v.1.15,2013-01-23 04:49:00,
2013-01-22 22:54:00,30.8,22.5,17.35,SE,135,0.0,0.0,71,0.00,,,0.00,Wunderground v.1.15,2013-01-23 04:54:00,
2013-01-22 22:59:00,30.7,22.4,17.35,SE,135,0.0,0.0,71,0.00,,,0.00,Wunderground v.1.15,2013-01-23 04:59:00,
2013-01-22 23:03:00,30.7,22.4,17.35,SE,135,0.0,0.0,71,0.00,,,0.00,Wunderground v.1.15,2013-01-23 05:03:00,
2013-01-22 23:08:00,30.5,22.2,17.35,SE,135,0.0,0.0,71,0.00,,,0.00,Wunderground v.1.15,2013-01-23 05:08:00,
2013-01-22 23:13:00,30.4,22.1,17.35,SE,134,0.0,0.0,71,0.00,,,0.00,Wunderground v.1.15,2013-01-23 05:13:00,
2013-01-22 23:18:00,30.3,22.0,17.35,SE,134,0.0,0.0,71,0.00,,,0.00,Wunderground v.1.15,2013-01-23 05:18:00,
2013-01-22 23:23:00,30.1,21.8,17.35,SE,134,0.0,0.0,71,0.00,,,0.00,Wunderground v.1.15,2013-01-23 05:23:00,
2013-01-22 23:28:00,30.1,21.8,17.35,SE,135,0.0,0.0,71,0.00,,,0.00,Wunderground v.1.15,2013-01-23 05:28:00,
2013-01-22 23:33:00,29.9,22.0,17.35,SE,135,0.0,0.0,72,0.00,,,0.00,Wunderground v.1.15,2013-01-23 05:33:00,
2013-01-22 23:38:00,29.8,21.9,17.35,SE,134,0.0,0.0,72,0.00,,,0.00,Wunderground v.1.15,2013-01-23 05:38:00,
2013-01-22 23:43:00,29.7,22.1,17.35,SE,134,0.0,0.0,73,0.00,,,0.00,Wunderground v.1.15,2013-01-23 05:43:00,
2013-01-22 23:48:00,29.6,22.0,17.35,SE,135,0.0,0.0,73,0.00,,,0.00,Wunderground v.1.15,2013-01-23 05:48:00,
2013-01-22 23:53:00,29.6,22.0,17.35,SE,135,0.0,0.0,73,0.00,,,0.00,Wunderground v.1.15,2013-01-23 05:53:00,
2013-01-22 23:58:00,29.5,22.2,17.35,SE,135,0.0,0.0,74,0.00,,,0.00,Wunderground v.1.15,2013-01-23 05:58:00,